Welcome to the New NWS' Forecast!
Most changes are behind the scenes, but click here for differences you might notice.

Regional Weather Roundup (RWR)

Issued by Gray - Portland, ME (GYX)

                            
000
ASUS41 KGYX 201505
RWRGYX
WEATHER ROUNDUP FOR MAINE AND NEW HAMPSHIRE
NATIONAL WEATHER SERVICE GRAY ME
1100 AM EDT SAT OCT 20 2018

MEZ002-005-006-010-012-015-018-020-021-024-026-027-029-201600-
MAINE
  
CITY           SKY/WX    TMP DP  RH WIND       PRES   REMARKS
PORTLAND       PTSUNNY   59  46  62 SW15G35   29.59R                  
SANFORD        CLOUDY    57  47  69 SW14      29.60F                  
BAR HARBOR     CLOUDY    58  48  69 SW22G31   29.55F                  
WISCASSET      FAIR      59  47  64 SW14G20   29.58F                  
ROCKLAND       FAIR      60  48  64 SW21G35   29.54F                  
FRYEBURG       CLOUDY    56  42  59 SW8G23    29.55F                  
LEWISTONAUBURN CLOUDY    56  45  66 SW10      29.56R                  
AUGUSTA        PTSUNNY   57  43  59 SW12G26   29.54S                  
WATERVILLE     CLOUDY    58  44  60 SW16G24   29.51S                  
BANGOR         PTSUNNY   59  44  57 SW13G28   29.52F                  
GREENVILLE       N/A     48  40  73 S9G21     29.43F                  
MILLINOCKET    CLOUDY    52  41  66 VRB3      29.49F                  
HOULTON        CLOUDY    53  44  71 SW14G26   29.45F                  
PRESQUE ISLE   CLOUDY    49  40  71 S13G21    29.43S                  
FRENCHVILLE    LGT RAIN  47  39  74 S14G22    29.36F                  
CARIBOU        LGT RAIN  49  39  68 S10G22    29.41F                  
$$

NHZ002-005-008-009-011-012-014-201600-
NEW HAMPSHIRE
  
CITY           SKY/WX    TMP DP  RH WIND       PRES   REMARKS
PORTSMOUTH     CLOUDY    58  46  62 SW12G21   29.60F                  
ROCHESTER      CLOUDY    57  47  69 VRB5      29.60S                  
NASHUA         CLOUDY    57  48  72 SW8       29.64S                  
MANCHESTER     CLOUDY    58  46  64 SW10G23   29.61F                  
CONCORD        CLOUDY    57  46  66 SW7       29.61F                  
LACONIA        CLOUDY    55  44  66 SW17      29.58F                  
PLYMOUTH       CLOUDY    51  45  80 CALM      29.57F                  
BERLIN         CLOUDY    54  41  61 SW12G22   29.51F                  
WHITEFIELD     PTSUNNY   55  41  59 SW8G20    29.53F                  
JAFFREY        PTSUNNY   55  47  74 SW8       29.62F                  
KEENE          CLOUDY    55  47  74 S10       29.63F                  
LEBANON        CLOUDY    56  41  57 SW8G17    29.58S                  
MT WASHINGTON  FOG       30  30 100 W59G70      N/A  VSB 0   WCI  11  
$$

VTZ005-007-008-201600-
VERMONT
  
CITY           SKY/WX    TMP DP  RH WIND       PRES   REMARKS
ST JOHNSBURY     N/A     53  42  66 MISG      29.51S                  
MONTPELIER     CLOUDY    53  41  63 SW16G28   29.57S                  
BURLINGTON     PTSUNNY   58  40  51 SW13G21   29.53S                  
$$

MAZ007-012-024-CTZ003-RIZ002-NYZ038-NYZ072-201600-
SOUTHERN NEW ENGLAND AND NY
  
CITY           SKY/WX    TMP DP  RH WIND       PRES   REMARKS
BOSTON         PTSUNNY   61  50  67 SW20G28   29.65F                  
WORCESTER      CLOUDY    53  47  79 SW15G24   29.66F                  
NANTUCKET      CLOUDY    60  57  89 W15G25    29.73F                  
PROVIDENCE     PTSUNNY   62  53  72 SW10      29.68F                  
HARTFORD       PTSUNNY   58  48  69 SW14G24   29.68F                  
ALBANY         CLOUDY    57  45  64 SW8       29.65F                  
NEW YORK CITY  PTSUNNY   59  51  75 W10       29.72F                  
$$

ANZ081-ANZ082-ANZ150-NHZ014-MEZ023>029-201600-
COASTAL MARINE OBSERVATIONS
  
STATION/POSITION TIME  TEMP    WIND        PRES    WAVE
                       AIR SEA DIR/SP/G            HT/PER
                 (UTC) (F)     (DEG/KT/KT) (MB)    (FT/S)
MOUNT DESERT ROC 1500   56     180/ 30/ 33 1001.4F
MATINICUS ROCK   1400   57     210/ 36/ 39 1001.5F
ISLE OF SHOALS   1400   56     230/ 21/ 22 1002.7F
JEFFREYS LEDGE   1406      55                N/A     5/ 5
$$

.............KEY..............
   WCI - WIND CHILL
   TC  - TEMPERATURE IN CELSIUS
   VSB - VISIBILITY IN MILES
   HX  - HEAT INDEX
   FAIR- INDICATES FEW OR NO CLOUDS BELOW 12,000 FT, WITH NO 
         SIGNIFICANT WEATHER AND/OR OBSTRUCTIONS TO VISIBILITY.